Regional Weather Roundup
Issued by NWS

Home | Current Version | Previous Version | Text Only | Print | Product List | Glossary On
Versions: 1 2 3 4 5 6 7 8 9 10 11 12 13 14 15 16 17 18 19 20 21 22 23 24 25 26 27 28 29 30 31 32 33 34 35 36 37 38 39 40 41 42 43 44 45 46 47 48 49 50
000
ASUS43 KBIS 280010
RWRND

NORTH DAKOTA REGIONAL WEATHER ROUNDUP
NATIONAL WEATHER SERVICE BISMARCK ND
700 PM CDT MON MAR 27 2017

NOTE: "FAIR" INDICATES FEW OR NO CLOUDS BELOW 12,000 FEET WITH NO
SIGNIFICANT WEATHER AND/OR OBSTRUCTIONS TO VISIBILITY.


NDZ001>003-009>011-017-280100-
NORTHWEST NORTH DAKOTA

CITY           SKY/WX    TMP DP  RH WIND       PRES   REMARKS
WILLISTON      CLOUDY    54  34  46 E12       29.91R
6HR MIN TEMP:  54; 6HR MAX TEMP:  60;

MINOT          CLOUDY    37  35  92 N14       29.97F FOG
$$

NDZ018>021-031>035-040>046-280100-
SOUTHWEST NORTH DAKOTA

CITY           SKY/WX    TMP DP  RH WIND       PRES   REMARKS
BISMARCK       FAIR      62  27  26 SE8       29.91R
6HR MIN TEMP:  60; 6HR MAX TEMP:  65;

DICKINSON      PTSUNNY   58  25  28 E10       29.85R
GARRISON         N/A     46  39  76 NE12      29.93R
6HR MIN TEMP:  46; 6HR MAX TEMP:  60;

HETTINGER ARPT SUNNY     59  29  31 SE10      29.88S
$$

NDZ004>008-012>016-024-026-027-054-280100-
NORTHEAST NORTH DAKOTA

CITY           SKY/WX    TMP DP  RH WIND       PRES   REMARKS
GRAND FORKS    MOCLDY    41  39  93 NE10      29.99F
GRND FRKS AFB  CLOUDY    41  39  93 NE13      29.99F
DEVILS LAKE    MOCLDY    47  42  83 E12       29.97R
$$

NDZ022-023-025-028>030-036>039-047>053-280100-
SOUTHEAST NORTH DAKOTA

CITY           SKY/WX    TMP DP  RH WIND       PRES   REMARKS
FARGO          CLEAR     55  44  66 NE7       29.96R
6HR MIN TEMP:  51; 6HR MAX TEMP:  58;

JAMESTOWN      FAIR      55  38  52 E7        29.94R
$$




USA.gov is the U.S. government's official web portal to all federal, state and local government web resources and services.